Dewpoint
34 27 25 25 27 29 25 27 29 26 29 27 26 22 22 22 21 19 28 30 27 26 19 16 17 15 14 12 11 11 12 12 11 11 13 15 15 16 17 17 18 17 17 32 30 28 29 29 27 29 27 26 25 25 25 23 24 25 23 23 20 21 22 24 24 21 22 21 21 20 16 13 11 13 12 14 14 13 12 14 14 15 15 14 14 15
36 26 24 28 25 17 19 30 30 29 26 27 24 22 19 25 17 21 27 27 31 22 18 16 15 13 12 10 10 11 13 10 11 13 13 14 15 14 16 21 21 20 30 28 24 26 26 27 30 29 28 26 23 23 23 24 24 24 24 23 20 20 19 22 22 23 20 21 20 19 17 14 11 12 14 12 12 13 13 15 14 16 15 14 13 16
26 20 29 18 19 23 25 29 28 26 29 29 21 18 15 16 19 27 28 28 28 24 20 15 13 13 13 13 13 12 12 16 14 15 17 16 16 16 19 22 24 22 23 21 22 25 26 31 31 24 26 22 22 22 22 22 23 24 24 25 23 23 23 22 23 24 21 19 21 19 18 15 14 10 11 12 14 14 13 12 14 15 15 15 13 14
22 33 21 21 24 28 29 29 28 28 29 19 19 19 19 22 17 17 28 29 24 20 17 16 17 18 17 17 14 12 16 16 19 19 23 25 18 18 20 21 20 19 20 18 18 17 18 23 27 27 27 25 28 24 23 22 22 22 23 23 24 25 23 24 24 27 23 20 18 20 20 19 14 13 16 11 13 13 12 12 13 15 14 14 13 13
24 26 19 29 28 28 30 29 28 23 19 25 22 19 16 21 22 19 20 22 25 26 26 20 20 20 20 21 11 15 19 17 22 20 23 25 27 26 21 19 20 19 20 19 18 20 20 20 21 23 24 25 23 23 22 22 21 19 22 24 24 24 24 25 26 24 24 22 21 20 21 21 20 19 15 10 8 9 12 12 11 12 14 14 13 13
28 20 24 27 19 25 27 25 27 25 17 16 27 28 21 22 21 22 21 19 13 11 24 24 13 11 16 17 12 17 17 17 18 18 17 17 18 20 16 18 20 23 22 20 20 22 22 22 22 23 23 23 22 21 23 22 22 23 23 23 23 24 24 24 25 24 23 23 21 19 17 17 17 16 14 11 9 8 7 10 9 10 13 14 13 12
29 24 29 32 29 29 28 25 27 26 16 12 18 26 23 19 20 22 22 17 13 11 21 26 8 10 12 10 14 17 14 14 15 16 16 16 16 18 19 18 19 18 21 23 22 22 22 23 23 22 21 21 22 22 25 23 24 24 24 23 23 23 23 24 22 24 23 21 18 17 17 17 16 15 15 12 11 10 7 9 7 9 10 13 11 11
27 30 23 26 23 28 26 24 25 20 17 13 23 27 21 24 20 21 20 17 13 19 21 21 16 11 12 12 15 15 14 15 16 17 17 16 17 18 17 20 20 20 20 22 21 21 22 22 22 21 20 21 22 24 26 25 25 23 22 24 24 23 23 23 24 23 23 21 20 19 18 18 16 15 14 14 11 10 12 8 7 7 7 9 10 9
29 29 26 27 24 24 21 22 24 28 16 21 25 25 21 22 23 23 18 16 16 14 16 13 21 12 13 16 14 15 13 15 17 18 19 19 18 17 18 19 20 21 21 20 22 22 23 23 22 21 21 21 23 26 26 24 24 25 24 25 24 23 23 23 22 23 22 23 20 19 19 18 19 17 16 16 18 18 14 9 7 7 8 7 8 7
35 29 28 29 24 19 24 16 21 25 18 29 27 27 25 25 25 23 16 15 14 12 14 15 19 12 12 15 10 14 13 16 17 18 19 18 17 17 21 21 20 21 23 23 22 22 23 23 23 23 22 22 24 25 26 24 24 23 25 25 24 23 23 22 22 22 21 21 22 20 19 18 17 17 17 16 14 13 12 8 7 5 5 3 4 5
30 33 34 32 27 22 19 17 26 24 27 27 28 24 24 24 22 20 19 15 14 14 15 19 19 15 9 11 13 14 14 17 18 17 18 18 17 19 21 20 21 20 21 21 21 22 22 23 23 24 23 23 24 25 25 26 24 24 25 25 23 23 23 22 22 22 21 20 20 19 18 18 17 17 17 16 14 13 11 5 3 2 -1 0 0 3
32 30 31 29 31 30 21 23 28 27 27 25 19 18 16 15 16 14 13 14 11 13 12 9 16 20 8 6 16 14 18 21 19 17 15 16 17 20 18 20 20 19 20 21 21 22 23 23 23 24 24 24 24 24 23 24 25 26 24 24 23 23 23 22 23 22 22 21 20 19 18 17 16 15 15 14 13 13 12 7 2 2 1 -1 1 -1
29 27 28 30 29 27 28 24 25 28 27 24 19 18 13 11 12 11 11 12 14 14 6 7 17 11 7 7 17 19 18 20 21 20 17 17 18 18 18 19 21 21 19 21 19 21 22 22 23 24 24 24 25 24 24 24 23 22 22 22 22 22 22 22 22 21 21 20 20 19 19 17 18 16 15 15 13 12 12 10 6 2 -0 -1 -2 -3
19 26 30 29 29 29 24 16 16 15 21 18 14 11 11 12 6 3 6 8 10 11 10 9 13 6 8 10 17 16 16 17 18 19 20 19 19 19 20 21 20 22 19 22 21 21 21 21 21 24 25 24 24 24 23 23 23 22 22 21 21 21 21 21 21 21 20 20 19 19 18 17 17 16 16 15 13 12 11 12 9 6 2 1 -1 -2
12 13 24 27 24 25 23 17 16 15 17 11 19 12 14 11 5 6 7 7 9 12 7 14 7 11 7 16 16 15 18 18 19 20 20 20 20 20 19 19 18 19 17 19 18 20 18 19 18 21 25 24 24 24 23 23 23 23 23 22 21 20 20 20 20 21 20 20 19 17 17 18 17 16 16 15 15 12 11 9 8 7 4 2 -1 -3
18 17 27 26 25 22 24 27 25 23 16 17 15 19 13 13 14 13 12 11 9 11 11 8 11 13 13 17 18 18 18 17 18 18 19 18 19 19 20 21 20 20 18 20 18 19 16 16 17 19 23 24 23 23 23 22 23 23 23 23 22 21 20 20 21 20 20 19 18 17 15 14 16 19 18 17 16 13 11 9 8 7 5 1 -1 -5
15 8 24 26 25 13 16 22 25 25 15 14 13 15 15 14 11 13 13 13 14 12 11 14 12 12 14 14 15 17 16 17 17 18 18 17 17 17 19 20 17 19 17 18 17 17 16 15 16 18 20 23 23 21 21 21 21 22 22 22 22 21 21 21 22 20 19 18 17 16 14 13 12 11 10 9 9 10 10 10 7 6 5 -0 -5 -7
12 12 25 25 24 22 23 20 26 25 23 14 13 10 20 19 17 13 10 10 10 8 7 9 10 9 10 11 14 15 14 14 16 16 15 16 16 15 17 17 16 17 16 16 14 15 16 16 15 15 20 22 21 20 20 20 20 21 22 22 21 21 20 21 21 21 19 18 17 15 14 13 12 10 9 8 8 8 8 8 7 6 3 -0 -4 -7
18 14 18 16 21 26 26 25 24 25 25 20 15 22 16 12 10 12 10 6 8 6 8 7 12 12 13 14 12 13 13 12 13 14 13 14 14 14 15 16 16 14 13 12 12 15 16 16 15 15 17 22 21 20 20 20 20 20 20 21 21 20 20 20 20 20 19 18 18 19 15 12 11 10 8 7 8 7 6 5 5 4 1 -4 -6 -2
20 13 16 20 16 19 15 21 15 17 22 25 23 18 20 14 13 10 13 11 11 9 6 6 11 11 15 15 12 11 11 13 14 13 14 13 14 13 13 14 12 12 11 12 14 15 16 16 15 15 19 21 20 19 19 18 19 19 20 19 19 19 18 18 18 18 18 18 19 19 16 13 13 12 11 9 7 5 4 4 3 2 -0 -2 -2 -6
16 13 12 15 23 19 12 13 11 15 18 14 14 14 16 14 14 13 13 10 9 7 8 9 9 11 12 11 10 11 11 13 14 15 14 13 11 11 12 12 12 12 13 14 15 15 16 15 16 17 21 20 19 19 19 18 18 19 19 19 18 18 18 18 17 17 18 18 18 19 19 18 14 12 11 10 8 6 3 2 6 2 0 -1 -4 -5
17 13 14 11 10 8 13 17 15 13 11 12 13 14 14 16 14 11 10 17 13 12 10 10 8 12 13 10 11 11 13 14 14 14 13 11 11 11 11 11 12 13 14 15 15 15 15 16 16 19 20 19 18 17 15 16 18 19 19 19 19 18 18 17 17 17 17 17 18 17 18 19 19 14 11 10 8 7 5 3 1 0 0 -2 -2 -4
17 13 10 13 11 12 11 13 17 20 21 20 13 13 15 16 14 11 9 11 12 12 11 11 10 11 11 11 11 9 9 14 13 13 12 11 10 11 12 13 13 15 16 16 16 16 17 17 18 18 17 16 16 16 16 17 18 19 18 18 18 18 17 17 16 16 15 15 15 16 17 18 18 17 12 10 8 7 5 3 1 0 -1 -0 -1 -1
25 15 14 15 16 19 15 18 12 18 19 18 14 11 14 15 18 15 15 14 11 10 9 10 9 11 12 13 10 9 13 14 13 12 12 11 11 11 13 14 15 16 16 16 16 16 17 17 17 16 16 16 16 16 17 18 18 18 18 18 18 17 17 17 18 16 15 14 14 14 15 16 17 17 14 12 10 7 5 4 1 1 -0 -1 -2 -2
16 12 14 13 11 13 7 8 11 16 18 10 12 14 19 20 17 15 13 14 10 10 11 9 8 12 15 13 9 14 13 12 10 9 10 10 11 13 14 15 16 16 16 15 16 17 16 15 15 15 15 16 16 17 18 18 19 20 20 21 24 25 24 22 21 19 17 16 15 14 14 15 16 17 15 14 11 8 5 3 1 0 1 0 0 1
20 18 14 10 7 6 7 10 14 16 16 13 15 19 17 19 14 14 12 13 11 12 13 12 12 12 11 10 10 13 10 9 10 11 12 13 13 14 15 16 16 16 16 16 16 15 14 14 14 15 15 16 16 18 20 20 20 20 22 23 23 22 21 20 20 19 18 17 15 14 13 13 15 16 16 16 15 11 8 4 2 1 1 1 -1 -1
20 19 14 14 13 13 15 16 19 20 14 12 16 20 16 18 18 14 14 13 12 14 13 13 14 11 10 9 11 10 10 11 12 12 12 11 12 12 14 15 16 16 16 16 15 14 14 14 14 15 16 17 19 20 19 19 20 21 21 20 19 18 17 16 17 17 16 15 14 14 16 18 20 21 21 20 18 15 10 6 3 1 1 0 -0 -1
18 17 19 21 18 17 17 16 15 18 13 15 15 15 16 17 16 11 11 13 16 15 12 14 12 11 8 6 11 11 13 12 12 11 10 11 11 13 14 15 19 16 15 15 14 14 14 13 14 16 17 17 18 20 20 20 20 20 19 17 14 13 15 16 16 17 18 18 19 20 19 19 21 23 23 23 22 20 12 5 3 3 1 2 -1 0
18 16 19 14 14 15 15 14 13 17 15 15 14 12 11 19 16 13 16 17 15 12 12 10 7 6 4 10 12 12 12 12 11 9 10 11 12 13 14 15 16 16 15 14 13 13 13 15 16 15 15 16 18 18 17 17 16 15 14 12 12 14 15 16 16 16 15 15 14 13 13 18 23 24 23 24 22 17 12 8 5 4 2 2 1 1
17 17 20 17 15 15 16 16 17 17 15 11 12 10 8 10 10 12 12 9 7 7 7 5 5 5 8 12 13 11 11 11 10 11 12 12 13 15 15 16 17 15 14 13 12 13 15 14 13 13 14 14 13 10 9 11 12 13 13 14 13 11 11 13 14 14 12 9 7 6 9 13 16 16 16 18 19 19 14 10 8 7 5 2 1 -0
17 15 17 15 14 18 18 16 11 16 12 8 8 9 8 6 6 6 8 8 8 7 7 6 6 8 12 12 11 11 10 10 11 12 13 14 14 15 17 16 14 13 12 13 14 13 13 12 11 9 8 7 7 8 10 13 13 10 8 8 9 8 7 8 7 6 5 5 7 8 11 12 12 13 12 12 13 14 16 15 11 8 7 6 3 1
13 17 15 16 15 15 12 14 16 15 11 8 5 6 5 3 7 6 8 7 7 9 8 8 10 11 11 10 10 10 10 11 12 13 14 13 12 15 15 14 12 12 12 12 12 12 11 9 7 6 7 8 10 13 14 11 6 1 -1 0 3 4 7 9 9 8 8 9 10 10 9 10 10 11 12 13 12 12 13 14 14 12 7 5 5 3
19 16 17 17 14 13 15 17 15 14 11 9 7 6 6 6 6 7 7 9 10 8 10 11 11 10 9 11 10 10 11 12 13 14 15 11 11 14 13 13 12 12 11 10 9 9 8 7 7 7 10 13 15 14 10 5 2 1 1 2 2 4 6 5 5 6 6 7 8 9 9 8 10 11 9 8 8 8 9 10 12 13 12 8 6 5
17 17 17 15 11 14 15 14 14 12 10 9 8 15 11 6 8 7 7 10 12 14 12 11 9 8 9 9 9 10 11 13 14 14 13 12 12 12 12 11 10 9 7 6 5 7 8 9 10 11 12 10 7 4 5 6 4 1 0 1 3 4 5 4 3 2 3 5 8 7 4 5 8 7 5 5 6 7 8 10 10 11 12 13 11 8
16 17 18 14 13 15 16 15 13 7 10 9 8 8 8 8 9 9 11 12 13 10 8 8 8 8 8 8 9 11 14 15 14 12 10 11 12 11 11 10 8 6 5 6 7 8 8 8 8 6 4 3 3 2 -0 1 1 1 0 2 3 4 3 3 2 -1 -1 4 8 6 4 4 4 5 6 7 9 10 10 11 11 13 14 15 15 13
17 18 18 16 16 16 13 12 5 8 15 16 9 9 12 10 10 10 10 12 11 9 9 8 8 8 7 8 10 13 14 12 10 9 9 11 10 10 10 8 5 5 6 7 7 7 6 6 4 3 2 3 0 -2 -3 -2 -1 -0 1 4 4 3 3 0 -2 -5 -7 -1 6 6 4 4 5 7 8 9 10 11 11 12 12 13 14 16 16 15
17 15 17 15 13 9 11 11 12 11 10 8 8 9 10 9 10 10 9 10 10 10 9 9 8 8 7 8 12 13 11 8 7 6 8 9 9 9 7 4 4 5 5 6 6 5 4 3 2 1 1 -2 -3 -2 -1 -0 1 2 4 4 4 3 -0 -4 -5 -5 -5 0 7 6 4 5 7 7 8 9 10 11 12 12 15 14 13 13 13 14
15 13 15 13 13 15 11 10 8 8 6 7 11 14 13 13 13 12 12 11 12 11 11 10 9 8 7 9 11 10 8 6 4 3 6 7 8 5 4 4 4 3 3 4 4 2 2 2 -0 -2 -3 -3 -2 -1 0 2 3 3 4 5 3 -1 -4 -6 -5 -3 -0 4 4 4 5 6 8 9 9 10 12 12 13 12 12 12 12 11 11 12
18 15 14 15 13 11 8 5 4 2 6 10 11 12 15 14 14 13 12 9 12 13 12 11 9 8 7 9 10 9 6 2 1 1 4 8 7 5 5 3 1 1 2 1 -0 -0 0 -3 -4 -2 -1 -2 -1 -0 1 2 1 -1 2 2 -1 -4 -5 -5 -4 -2 -1 -0 2 1 2 4 5 7 8 8 9 8 8 8 8 8 10 11 11 11
16 18 16 12 6 9 7 7 6 7 6 11 12 12 13 14 12 11 3 3 13 14 13 10 7 6 7 7 9 8 5 2 3 4 8 8 6 4 0 -1 -1 0 -1 -3 -2 -0 -1 -1 -3 -3 -4 -3 -2 -1 -2 -3 -3 -2 -0 -1 -3 -5 -6 -7 -5 -5 -2 3 2 2 2 3 4 5 5 6 6 6 6 7 6 6 7 10 10 10
13 13 14 9 11 12 13 7 8 9 12 12 11 11 14 13 10 5 1 10 14 13 9 6 5 5 6 7 10 8 6 5 4 5 7 6 3 -1 -2 -2 -1 -0 -2 -2 -2 4 -3 -4 -4 -5 -4 -3 -2 -2 -3 -3 -3 -3 -3 -4 -5 -7 -7 -7 -6 -2 1 -2 -2 -3 -1 1 2 2 2 2 3 5 5 5 6 8 8 8 8 9
11 10 12 11 11 10 8 8 8 10 12 11 10 11 15 10 4 5 13 14 10 7 6 6 5 6 8 8 6 5 3 4 6 4 1 -1 -3 -4 -3 -0 1 -0 -1 0 1 -0 -3 -4 -5 -5 -4 -4 -3 -4 -4 -3 -3 -3 -4 -6 -7 -8 -9 -7 -1 -1 -5 -5 -5 -4 -3 -2 0 1 1 2 5 4 2 3 3 3 4 4 6 7
8 8 9 9 9 9 6 5 6 4 10 12 10 9 15 12 13 14 10 8 9 7 6 6 8 9 4 2 4 4 4 2 -0 -2 -3 -4 -3 -3 -1 0 -1 -2 -2 -3 -3 -3 -3 -5 -5 -5 -5 -4 -5 -5 -4 -4 -4 -5 -6 -8 -8 -9 -7 -3 -4 -7 -7 -6 -5 -3 -1 -1 -3 -3 -1 -1 0 0 -2 -1 0 2 3 2 1 0
10 8 8 10 11 6 6 2 4 10 14 13 10 10 15 15 13 8 6 6 8 8 7 8 9 4 3 4 5 3 -0 -3 -3 -3 -2 -2 -2 -1 -1 -1 -2 -2 -3 -3 -4 -4 -2 -4 -5 -4 -5 -6 -6 -5 -5 -4 -5 -6 -7 -9 -9 -7 -4 -6 -9 -8 -6 -4 -3 -3 -6 -6 -5 -5 -4 -3 -3 -4 -4 -3 -2 -2 -3 -2 -2 -2
8 8 8 8 10 9 7 7 9 15 16 14 11 13 14 10 8 6 7 7 7 7 8 6 4 0 -2 -2 -1 -1 -2 -2 -3 -3 -3 -2 -2 -1 -1 -2 -3 -3 -4 -4 -5 -4 -4 -5 -5 -6 -7 -7 -7 -7 -6 -6 -7 -8 -9 -8 -7 -5 -7 -8 -7 -6 -5 -6 -8 -9 -8 -8 -8 -7 -6 -5 -5 -5 -5 -6 -5 -6 -5 -4 -3 -3
8 8 8 8 11 5 6 10 17 16 15 13 12 15 9 6 4 7 7 7 7 6 4 4 0 -3 -3 -3 -4 -3 -2 -2 -3 -2 -3 -3 -2 -1 -1 -2 -3 -4 -5 -5 -6 -6 -5 -4 -5 -7 -7 -7 -7 -7 -7 -8 -9 -9 -9 -8 -7 -7 -7 -6 -7 -9 -10 -10 -10 -10 -10 -10 -10 -9 -8 -7 -6 -6 -6 -6 -6 -6 -6 -5 -4 -2
8 9 8 7 6 6 3 7 14 15 14 12 12 11 7 4 5 7 7 7 4 2 3 3 1 0 -1 -3 -4 -4 -4 -3 -3 -3 -3 -2 -2 -2 -3 -3 -4 -5 -6 -6 -6 -4 -5 -5 -7 -6 -6 -7 -8 -9 -9 -9 -10 -8 -8 -7 -7 -7 -7 -9 -11 -12 -11 -11 -13 -13 -12 -13 -13 -12 -10 -9 -9 -8 -7 -6 -6 -5 -3 -1 0 1
10 10 7 6 7 6 5 7 13 15 14 13 12 8 4 4 5 7 8 7 5 4 4 4 4 2 -1 -3 -3 -3 -3 -3 -3 -3 -3 -3 -2 -3 -4 -4 -5 -6 -6 -6 -6 -4 -5 -7 -6 -6 -7 -7 -8 -10 -10 -10 -10 -8 -9 -8 -9 -9 -10 -12 -12 -13 -13 -14 -15 -14 -14 -14 -11 -11 -12 -10 -9 -8 -7 -6 -4 -3 -3 -2 -3 -2
9 12 7 8 7 8 9 9 13 14 11 11 10 6 3 4 6 6 3 3 5 5 3 1 -1 -2 -3 -3 -3 -3 -3 -3 -3 -3 -3 -3 -4 -5 -5 -6 -6 -6 -6 -6 -6 -5 -7 -6 -6 -7 -7 -8 -9 -9 -10 -9 -9 -9 -9 -10 -10 -10 -12 -13 -13 -14 -16 -16 -16 -15 -14 -14 -13 -12 -11 -10 -9 -8 -7 -6 -5 -3 -3 -2 -1 -1
9 9 9 9 8 8 8 10 12 8 8 9 9 5 3 5 7 4 3 4 3 1 -2 -2 -2 -1 -3 -3 -3 -3 -4 -4 -3 -2 -3 -5 -5 -5 -6 -6 -6 -6 -6 -6 -7 -7 -7 -6 -7 -8 -8 -10 -10 -9 -9 -9 -9 -9 -10 -10 -11 -11 -13 -14 -15 -16 -17 -16 -16 -16 -15 -14 -13 -12 -10 -9 -9 -8 -8 -5 -4 -4 -6 -5 1 4
8 9 9 8 8 8 10 11 9 8 8 7 5 3 4 6 5 4 4 2 -2 -2 -3 -3 -2 -3 -4 -4 -3 -4 -4 -3 -3 -3 -4 -5 -6 -6 -6 -6 -6 -6 -7 -8 -7 -7 -7 -7 -7 -8 -9 -10 -9 -9 -9 -9 -10 -10 -11 -11 -11 -12 -13 -14 -16 -16 -17 -16 -16 -15 -15 -14 -13 -12 -11 -11 -10 -10 -10 -10 -7 3 -2 -1 1 2